Location: Agadir Mansour Mhndou
(31.2424°N, 8.7730°W)
Time: 18:18:09
(UTC+00:00)

ATLAS 5 CENTAUR R/B - Pass Details

Date: 16 October 2021
Orbit: 497 x 1159 km, 63.4° (Epoch: 25 November)

Event Time Altitude Azimuth Distance (km) Brightness Sun altitude
Rises 18:34:43 0° 200° (SSW) 2,575 5.1 -7.7°
Reaches altitude 10° 18:36:51 10° 196° (SSW) 1,687 4.1 -8.2°
Maximum altitude 18:40:29 58° 116° (ESE) 593 1.2 -9.0°
Drops below altitude 10° 18:44:19 10° 38° (NE) 1,786 3.5 -9.8°
Enters shadow 18:46:05 - 35° (NE) 2,510 4.3 -10.2°
